User: anonymous   Login
Location: Unspecified
(0.0000°N, 0.0000°E)
Time: 16:11:14
(UTC+00:00)
Language:

USA 247 - Orbit

View from above orbital plane
View from above orbital plane
View from above satellite
View from above satellite

Ground track
Ground track

The orbit data is extracted from the following two-line orbital elements,

1 39462U 13072A   15022.76931037 0.00000000  00000-0  00000-0 0    06
2 39462 123.0062  65.5305 0002999 157.8096 202.1904 13.41446855    08
Epoch (UTC): 22 January 2015 18:27:48
Eccentricity: 0.0002999
inclination: 123.0062°
perigee height: 1101 km
apogee height: 1106 km
right ascension of ascending node: 65.5305°
argument of perigee: 157.8096°
revolutions per day: 13.41446855
mean anomaly at epoch: 202.1904°
orbit number at epoch: 0

The dashed part of the orbit path shows where the satellite is in the earth's shadow,  

DLR